Weather History for Daggett-Barstow, CA

Change the Weather History Date:

Thursday, April 17, 2014

  Actual Average Record
Temperature  
Mean Temperature 78 °F -  
Max Temperature 93 °F 78 °F 98 °F (1989)
Min Temperature 62 °F 52 °F 41 °F (1963)
Cooling Degree Days 12    
Growing Degree Days 28 (Base 50)    
Moisture  
Dew Point 28 °F    
Average Humidity 19    
Maximum Humidity 31    
Minimum Humidity 7    
Precipitation  
Precipitation 0.00 in - - ()
Sea Level Pressure  
Sea Level Pressure 29.75 in    
Wind  
Wind Speed 10 mph (WSW)    
Max Wind Speed 21 mph    
Max Gust Speed 31 mph    
Visibility 10 miles    
Events      
Averages and records for this station are not official NWS values.
T = Trace of Precipitation, MM = Missing Value Source: NWS Daily Summary

Daily Weather History Graph

Daily Weather History Graph

Search for Another Location

Airport:

Trip Planner

Search our weather history database for the weather conditions in past years. The results will help you decide how hot, cold, wet, or windy it might be!

Date:

Astronomy

Apr. 17, 2014 Rise Set
Actual Time 6:12 AM PDT 7:21 PM PDT
Civil Twilight 5:46 AM PDT 7:47 PM PDT
Nautical Twilight 5:15 AM PDT 8:18 PM PDT
Astronomical Twilight 4:43 AM PDT 8:50 PM PDT
Moon 10:06 PM PDT (4/17) 7:52 AM PDT (4/17)
Length of Visible Light 14h 00m
Length of Day
13h 08m
Waning Gibbous, 93% of the Moon is Illuminated
Apr 17
Waning Gibbous
Apr 22
Last Quarter
Apr 28
New
May 6
First Quarter
May 14
Full

Hourly Weather History & Observations

Time (PDT) Temp. Dew Point Humidity Pressure Visibility Wind Dir Wind Speed Gust Speed Precip Events Conditions
12:50 AM 66.9 °F 30.9 °F 26% 29.76 in 10.0 mi West 11.5 mph - N/A   Clear
2:50 AM 63.0 °F 30.9 °F 30% 29.76 in 10.0 mi WSW 9.2 mph - N/A   Clear
3:50 AM 64.0 °F 30.9 °F 29% 29.75 in 10.0 mi West 12.7 mph - N/A   Clear
4:50 AM 63.0 °F 32.0 °F 31% 29.75 in 10.0 mi West 10.4 mph - N/A   Clear
5:50 AM 62.1 °F 30.0 °F 30% 29.75 in 10.0 mi WSW 10.4 mph - N/A   Clear
6:50 AM 63.0 °F 28.9 °F 28% 29.78 in 10.0 mi SW 6.9 mph - N/A   Clear
7:50 AM 68.0 °F 30.9 °F 25% 29.81 in 10.0 mi West 8.1 mph - N/A   Clear
8:50 AM 71.1 °F 30.9 °F 23% 29.81 in 10.0 mi West 8.1 mph - N/A   Clear
10:50 AM 79.0 °F 28.0 °F 15% 29.81 in 10.0 mi Calm Calm - N/A   Clear
11:50 AM 82.9 °F 27.0 °F 13% 29.79 in 10.0 mi NE 5.8 mph - N/A   Clear
12:50 PM 89.1 °F 27.0 °F 11% 29.75 in 10.0 mi North 8.1 mph - N/A   Clear
1:50 PM 91.9 °F 19.9 °F 7% 29.72 in 10.0 mi South 17.3 mph 31.1 mph N/A   Clear
1:59 PM 93.0 °F 19.0 °F 7% 29.79 in 10.0 mi SSE 20.7 mph 24.2 mph N/A   Clear
2:50 PM 90.0 °F 19.0 °F 7% 29.70 in 10.0 mi SE 10.4 mph 18.4 mph N/A   Clear
3:50 PM 90.0 °F 18.0 °F 7% 29.69 in 10.0 mi SSE 17.3 mph - N/A   Clear
4:50 PM 88.0 °F 23.0 °F 9% 29.68 in 10.0 mi Variable 3.5 mph - N/A   Clear
5:50 PM 88.0 °F 27.0 °F 11% 29.68 in 10.0 mi WSW 17.3 mph - N/A   Clear
6:50 PM 84.0 °F 25.0 °F 12% 29.68 in 10.0 mi SW 17.3 mph - N/A   Clear
9:50 PM 75.9 °F 37.0 °F 24% 29.74 in 10.0 mi NW 10.4 mph - N/A   Clear
10:50 PM 73.0 °F 37.0 °F 27% 29.74 in 10.0 mi WNW 5.8 mph - N/A   Clear
11:50 PM 70.0 °F 37.0 °F 30% 29.75 in 10.0 mi West 6.9 mph - N/A   Clear